Volver al catálogo

SL-16 DEB

ActivoLEO
NORAD 22610·DEBRIS·🇷🇺 Russia

Lanzado Mar 26, 1993 desde Baikonur Cosmodrome

Loading…

Próximos Pases (próximas 24 horas)

TLE

ActualizadoSource: Space-Track

Época: Sep 14, 2026, 12:09 UTC

1 22610U 93016U   26257.50657295 -.00000009  00000-0  33136-4 0  9991
2 22610  70.9993 295.7367 0213547 185.0471 174.8477 13.67907234670820

Sigue SL-16 DEB en tiempo real con AllMySat

Download on the App Store